This demonstration page uses our WeatherBlox Daily Observations layout. Learn more.

Left ArrowRight Arrow

Hourly Observations for September 22, 2018

Temp ( °F °C ) Dew Point ( °F °C ) Humidity (%) Winds ( mph kmh ) Pressure ( in mb ) Visibility ( mi km ) Precip ( " mm )
12:54 am 00:54 Clear 48 8.9 43 6.1 83 83 N 5 7 30.35 1028 10 16 N/A
1:54 am 01:54 Clear 47 8.3 43 6.1 86 86 N N/A 30.35 1028 10 16 N/A
2:54 am 02:54 Clear 45 7.2 42 5.6 90 90 N 3 6 30.34 1028 10 16 N/A
3:54 am 03:54 Clear 43 6.1 41 5 93 93 N 5 7 30.33 1027 10 16 N/A
4:54 am 04:54 Clear 43 6.1 41 5 93 93 N 5 7 30.32 1027 10 16 N/A
5:54 am 05:54 Clear 42 5.6 40 4.4 92 92 N N/A 30.32 1027 10 16 N/A
6:54 am 06:54 Clear 42 5.6 40 4.4 92 92 N 5 7 30.32 1027 10 16 N/A
7:54 am 07:54 Sunny 44 6.7 42 5.6 93 93 N 3 6 30.32 1027 10 16 N/A
8:54 am 08:54 Sunny 50 10 46 7.8 86 86 SSE 7 11 30.31 1026 10 16 N/A
9:54 am 09:54 Sunny 54 12.2 47 8.3 77 77 S 8 13 30.30 1026 10 16 N/A
10:54 am 10:54 Sunny 58 14.4 47 8.3 67 67 S 9 15 30.29 1026 10 16 N/A
11:54 am 11:54 Sunny 62 16.7 48 8.9 60 60 SSW 9 15 30.27 1025 10 16 N/A
12:54 pm 12:54 Sunny 65 18.3 49 9.4 56 56 S 7 11 30.24 1024 10 16 N/A
1:54 pm 13:54 Sunny 68 20 48 8.9 49 49 SSW 9 15 30.20 1023 10 16 N/A
2:54 pm 14:54 Sunny 71 21.7 49 9.4 46 46 SSE 8 13 30.16 1021 10 16 N/A
3:54 pm 15:54 Sunny 72 22.2 48 8.9 43 43 SSE 10 17 30.13 1020 10 16 N/A
4:54 pm 16:54 Sunny 72 22.2 47 8.3 41 41 SE 13 20 30.10 1019 10 16 N/A
5:54 pm 17:54 Sunny 71 21.7 48 8.9 44 44 SSE 12 19 30.09 1019 10 16 N/A
6:54 pm 18:54 Sunny 68 20 49 9.4 51 51 SSE 12 19 30.08 1019 10 16 N/A
7:54 pm 19:54 Clear 63 17.2 49 9.4 60 60 SSE 10 17 30.08 1019 10 16 N/A
8:54 pm 20:54 Clear 58 14.4 49 9.4 72 72 S 7 11 30.09 1019 10 16 N/A
9:54 pm 21:54 Clear 56 13.3 49 9.4 77 77 S 8 13 30.09 1019 10 16 N/A
10:54 pm 22:54 Clear 55 12.8 48 8.9 77 77 undefined N/A 30.09 1019 10 16 N/A
11:54 pm 23:54 Clear 56 13.3 48 8.9 75 75 undefined N/A 30.07 1018 10 16 N/A

Powered by AerisWeather